Вернуться в каталог

STARLINK-6188

АктивенСвязьVLEO
NORAD 56376·PAYLOAD·🇺🇸 United States

Запущен May 4, 2023 с Cape Canaveral Space Force Station

Loading…

Ближайшие Пролёты (ближайшие 24 часа)

TLE

СвежийSource: CelesTrak SupGP

Эпоха: Sep 15, 2026, 02:06 UTC

1 56376C 23061C   26258.08798611 -.00015210  00000+0 -55108-3 0  2582
2 56376  43.0030 207.9660 0001269 276.3515 290.7007 15.27575780    19

Отслеживайте STARLINK-6188 в реальном времени с AllMySat

Download on the App Store